WGS F3 (USA 211)        
1 36108U 09068A   19261.69890194 -.00000099  00000-0  00000+0 0  9994
2 36108   0.0185 168.0088 0000373  65.0009   3.9392  1.00272248 35817
DELTA 4 R/B             
1 36109U 09068B   19260.15257718 -.00000420  00000-0  45526-3 0  9998
2 36109  24.7267   6.0512 8153406 181.8222 192.2037  1.18588035 42340